User: anonymous   Login
Location: Central Falls
(41.8900°N, 71.3929°W)
Time: 17:45:23
(UTC+00:00)
Language:

SL-12 DEB - Orbit

View from above orbital plane
View from above orbital plane
View from above satellite
View from above satellite

Ground track
Ground track

The orbit data is extracted from the following two-line orbital elements,

1 45132U 20008B   24146.80200680  .00000418  00000-0  11623-2 0  9994
2 45132  87.8947 185.8444 0002278  90.8197 269.3191 13.10371361210186
Epoch (UTC): 25 May 2024 19:14:53
Eccentricity: 0.0002278
inclination: 87.8947°
perigee height: 1220 km
apogee height: 1223 km
right ascension of ascending node: 185.8444°
argument of perigee: 90.8197°
revolutions per day: 13.10371361
mean anomaly at epoch: 269.3191°
orbit number at epoch: 21018

The dashed part of the orbit path shows where the satellite is in the earth's shadow,  

DLR